Location: Newark
(46.1292°N, 1.0086°W)
Time: 14:30:30
(UTC+00:00)

Vanguard 1 Rocket - All Passes

Search period start: 20 November 2019 00:00
Search period end: 30 November 2019 00:00
Orbit: 651 x 4226 km, 34.3° (Epoch: 19 November)

Date Brightness Start Highest point End Pass type
(mag) Time Alt. Az. Time Alt. Az. Time Alt. Az.
20 Nov - 03:04:47 10° SSW 03:07:10 14° SSE 03:09:34 10° SE visible
20 Nov - 05:27:28 10° SW 05:31:05 22° S 05:35:42 10° SE visible
20 Nov - 07:51:47 10° SW 07:55:40 17° SSW 08:00:53 10° SSE daylight
21 Nov - 04:17:14 10° SW 04:20:30 20° S 04:24:08 10° SE visible
21 Nov - 06:41:04 10° SW 06:44:41 19° S 06:49:28 10° SSE visible
22 Nov - 03:07:00 10° SSW 03:09:57 17° S 03:12:51 10° SE visible
22 Nov - 05:30:34 10° SW 05:33:55 20° S 05:38:03 10° SE visible
22 Nov - 07:56:17 10° SW 07:58:33 12° SSW 08:01:11 10° S daylight
23 Nov - 01:56:50 10° SSW 01:59:20 13° SSE 02:01:34 10° SE night (unlit)
23 Nov - 04:20:04 10° SW 04:23:19 20° S 04:26:51 10° SE visible
23 Nov - 06:44:45 10° SW 06:47:33 14° SSW 06:50:56 10° SSE visible
24 Nov - 00:47:29 10° S 00:48:32 10° SSE 00:49:31 10° SSE night (unlit)
24 Nov - 03:09:27 10° SW 03:12:46 19° S 03:15:55 10° SE visible
24 Nov - 05:33:50 10° SW 05:36:46 17° S 05:40:11 10° SSE visible
25 Nov - 01:58:41 10° SSW 02:02:09 17° S 02:05:07 10° SE night (unlit)
25 Nov - 04:23:02 10° SW 04:26:09 19° S 04:29:26 10° SE visible
26 Nov - 00:47:52 10° SSW 00:51:23 15° SSE 00:54:16 10° SE night (unlit)
26 Nov - 03:12:05 10° SW 03:15:35 20° S 03:18:50 10° SE visible
26 Nov - 05:37:28 10° SW 05:39:36 13° SSW 05:41:55 10° SSE visible
26 Nov - 23:37:26 10° S 23:40:24 12° SSE 23:42:55 10° SE night (unlit)
27 Nov - 02:00:53 10° SW 02:04:59 20° S 02:08:21 10° SE night (unlit)
27 Nov - 04:26:08 10° SW 04:28:57 16° S 04:31:52 10° SSE visible
28 Nov - 00:49:27 10° SW 00:54:16 19° S 00:57:53 10° SE night (unlit)
28 Nov - 03:14:50 10° SW 03:18:24 20° S 03:21:39 10° SE visible
28 Nov - 23:37:58 10° SSW 23:43:17 17° SSE 23:47:13 10° SE night (unlit)
29 Nov - 02:03:17 10° SW 02:07:50 22° S 02:11:26 10° SE night (unlit)
29 Nov - 04:29:30 10° SW 04:31:44 13° SSW 04:33:59 10° SSE visible
29 Nov - 22:26:52 10° S 22:32:02 15° SSE 22:36:00 10° SE night (unlit)
